Showing default

GSAT 9, 42695

Orbit data source: Space-Track

GSAT 9, 42695 is a payload satellite owned by ISRO (IN) in GEO that was launched on Fri, 05 May 2017 UTC via a GSLV MK II launch vehicle from the Sirharikota (SRI). Payloads include a variety of satellites, spacecraft, and rockets equipped with specific instruments for various scientific and technological missions. These include communications satellites like Starlink; space stations such as the ISS; scientific satellites like the Hubble; Earth observation satellites from companies like Planet Labs, Umbra, and HawkEye 360; GPS; miniature CubeSats for education and research; and military/defense satellites.

Not visible in the next 10 days
GSAT 9 details
Identifier
42695, 2017-024A
Orbit
GEO
Last TLE update7 hours ago
Origin
Flag of INISRO (IN / IND)
ManufacturerISRO
MissionOperational Civil Communications
Bus & MotorI2K, ISRO LAM
Mass2,230 kg wet, 976 kg dry
Launch date (UTC)
2017-05-05 (8 years ago)
Launch vehicle
GSLV MK II
Launch site
Sirharikota (SRI)
Object type
Payload
Rocket body
Debris
Shape & HBRBox + 2 Pan, 9.5 m
Radar Cross Section8.526 m², Large (>1 m²)

Expand to show TLE details & history

TLE from 7 hours ago
0 GSAT 9
1 42695U 17024A   24337.04146725 -.00000259  00000-0  00000+0 0  9994
2 42695   0.0422 270.3982 0002595 337.6540 295.5639  1.00274972 27792
Epoch: 2024-12-02T00:59Z
Definitive object data (Epoch: 2024-12-02T00:59:42.77Z)
Latitude-0.05746°
Longitude97.25935°
Altitude35,780.467 km
Speed3.075 km/s
True Right ascension12h 14m 14s
True Declination0° 03' 27"
Sunlit
Object was in daylight at TLE epoch
Visualization TLE readout
Latitude0.003°
Longitude-156.7397°
Altitude35,776.979 km
Speed3.075 km/s
Apparent Right ascension19h 09m 04s
Apparent Declination-4° 58' 37"
Sunlit
Object is in daylight
Visualization observer readout
Local Sidereal Time05:48:31
Azimuth327.273° NNW
Elevation-50.63°
Doppler factor1
Orbital elements
Apogee altitude35,797.714 km
Perigee altitude35,775.83 km
Semi-major axis42,164.909 km
Eccentricity0.0002595
Inclination0.0422°
RAAN270.3982°
Arg. of periapsis337.654°
True anomaly295.53707°
Mean anomaly295.5639°
Eccentric anomaly295.55049°
Mean motion0.25068 °/min
BSTARUnknown
Orbital period1436.1 mins
Loading historical data...
42695 neighbors
Authenticating...
Loading maneuver chart data...
Loading historical data...
Loading historical data...
Loading historical data...
Loading historical data...
Loading historical data...
Loading historical data...
Loading historical data...
Other satellites on launch #24 in the year 2017 (2017-05-05 UTC)

GSAT 9 Visibility forecast

Observer location: undefined°, undefined

GSAT 9 is not visible in the next 10 days
Span
Click to sort rows by Start time (UTC) header in descending order
Start Az.
Max El. time (UTC)
Max El. Az.
Max El.
End time (UTC)
End Az.
|